Wind_Speed
8 8 7 6 5 5 7 9 12 14 14 11 9 10 11 12 11 10 10 11 12 12 12 11 11 10 10 12 12 12 12 11 11 10 10 10 10 11 11 12 14 16 17 17 16 14 12 11 11
7 7 5 5 3 6 6 5 5 9 12 11 9 9 9 10 10 8 7 7 8 8 7 7 8 8 8 10 10 11 11 10 10 9 8 7 6 7 8 9 11 12 13 14 14 13 11 9 8
9 6 4 3 3 2 3 4 2 3 5 6 6 6 7 7 7 7 7 6 5 5 4 3 5 6 6 7 8 9 9 9 8 6 4 4 5 5 6 7 9 10 12 12 12 12 11 9 7
11 9 6 4 3 3 5 6 5 4 2 2 1 0 2 3 4 5 6 6 6 5 3 2 2 3 4 4 5 6 6 6 6 5 4 4 5 5 6 7 8 9 10 11 11 11 11 10 8
11 11 10 9 7 6 6 8 7 6 6 5 6 5 3 3 4 4 4 5 5 4 3 3 1 0 1 1 1 1 2 3 4 4 4 5 5 5 6 7 8 10 11 12 12 12 11 9 8
10 11 13 14 13 11 9 8 9 8 9 9 9 8 6 5 6 5 5 6 6 4 4 5 4 4 5 5 5 5 3 0 2 3 3 3 4 5 5 7 9 10 11 13 14 14 14 12 9
10 10 12 13 14 15 14 12 11 11 12 11 11 10 8 6 7 6 6 8 8 7 7 7 8 9 10 10 10 10 8 5 3 1 2 4 5 7 7 8 9 10 10 11 12 13 15 16 13
12 13 14 13 13 14 15 16 15 14 13 12 13 12 11 10 10 10 9 10 11 11 10 10 10 11 12 12 13 13 11 10 8 7 8 8 8 8 9 8 7 8 10 11 12 13 15 17 16
15 16 18 17 16 14 12 13 13 12 10 10 12 13 14 13 13 13 12 12 12 13 13 13 12 12 13 14 14 14 13 12 13 12 14 15 14 12 10 7 6 8 10 12 13 13 15 18 18
18 18 22 22 21 20 15 12 10 9 9 7 8 9 10 11 12 13 12 11 11 13 14 14 14 15 15 16 16 16 16 16 17 17 17 18 16 14 12 9 7 8 9 11 13 14 15 17 18
22 21 25 26 26 25 21 15 13 11 12 11 9 9 8 9 11 11 11 11 12 13 15 16 17 20 20 20 19 20 21 21 20 20 18 17 15 13 12 11 9 8 9 12 13 13 15 16 17
25 25 28 30 30 27 25 21 18 16 16 16 13 12 12 13 13 13 13 13 13 15 17 18 19 21 23 24 23 23 23 23 21 20 18 15 12 11 12 12 11 10 10 13 15 15 17 18 17
29 29 31 33 32 29 28 28 26 23 22 22 20 19 18 16 16 14 14 14 14 17 18 20 20 22 24 25 26 27 26 24 21 19 16 15 14 13 14 14 12 11 12 15 16 18 20 21 20
31 31 31 32 33 32 31 32 32 29 27 26 25 24 23 21 20 19 18 18 18 18 20 21 22 25 28 31 33 33 34 32 28 23 19 18 17 16 16 16 14 14 15 17 18 20 22 23 22
34 33 31 30 33 35 35 34 33 33 30 30 30 28 27 26 25 23 21 23 23 23 24 26 27 29 30 33 35 36 37 37 34 31 27 24 21 19 18 18 18 18 19 20 20 21 23 25 25
38 37 34 32 34 37 40 39 38 38 35 34 34 34 32 29 28 27 26 25 26 26 28 31 32 33 32 33 36 38 39 41 40 36 32 29 26 22 20 20 21 21 22 23 24 24 25 27 28
37 39 38 36 38 41 43 45 43 42 41 39 39 38 36 32 28 27 27 27 27 28 29 32 34 34 33 35 38 40 42 43 43 41 37 34 30 26 24 23 25 26 27 28 29 29 29 30 32
31 35 36 37 40 43 44 45 44 43 42 42 41 39 36 32 26 27 28 29 29 29 30 32 34 36 36 37 40 42 44 45 46 45 43 41 38 33 29 28 30 31 32 33 34 34 35 34 35
25 26 27 30 35 39 41 41 41 40 40 40 40 39 36 33 30 30 30 31 32 33 34 34 36 39 41 41 41 43 46 48 50 50 50 49 46 40 34 31 32 34 34 35 37 38 38 37 37
25 25 24 23 26 29 31 32 33 33 33 35 35 35 36 36 35 36 36 36 37 38 36 34 36 41 44 46 45 45 48 51 53 54 55 54 49 44 38 35 35 35 36 36 38 39 40 39 39
27 28 28 27 26 28 29 30 31 31 32 32 32 31 31 32 35 36 37 38 39 38 36 36 39 42 43 46 47 48 50 51 52 53 54 50 44 42 37 35 36 36 36 37 38 39 39 38 38
27 29 29 30 29 30 31 34 33 35 35 35 34 33 33 34 36 38 41 43 44 45 46 46 47 47 49 50 50 50 52 51 51 50 46 42 39 36 34 35 35 35 36 36 36 37 37 37 37
26 27 29 30 31 32 32 35 36 37 39 40 40 40 40 41 42 44 46 49 51 52 53 53 52 51 53 52 52 49 49 48 48 46 42 39 36 32 32 33 33 34 34 35 37 39 39 39 38
22 22 23 24 24 25 27 31 34 34 37 41 45 47 48 49 50 51 52 53 54 55 56 56 53 50 49 47 44 47 50 49 46 42 36 32 30 30 31 33 33 34 34 36 39 40 40 39 37
18 19 20 20 19 19 20 23 21 21 26 31 37 41 45 48 51 52 54 55 56 56 56 55 53 50 48 46 42 41 45 46 40 33 29 28 29 31 33 34 35 35 36 38 40 39 37 35 34
16 18 21 21 19 17 16 16 15 18 22 26 30 34 37 40 43 47 51 54 56 57 57 56 53 50 47 46 44 40 36 32 29 27 28 30 32 33 35 36 37 37 37 38 37 34 32 32 31
14 15 17 18 17 16 15 14 18 24 27 27 27 29 32 35 39 42 46 51 55 57 58 58 55 50 46 43 41 37 34 31 29 29 30 32 34 35 36 37 39 39 38 35 32 30 30 28 27
15 15 17 20 22 23 21 19 25 29 28 29 30 32 33 35 37 41 46 49 52 53 54 53 49 45 42 40 38 36 34 32 30 30 32 35 38 40 42 42 40 37 34 30 29 28 26 25 24
18 18 20 23 25 28 29 22 27 29 30 31 33 34 34 35 38 42 45 47 47 46 43 40 38 38 36 35 34 33 31 30 30 30 32 35 37 37 36 35 34 32 31 30 29 28 26 25 23
23 23 25 26 28 29 32 27 29 31 31 33 34 34 36 38 40 42 43 41 39 37 34 31 31 31 32 32 32 31 32 30 30 32 33 33 31 30 30 31 31 32 32 31 30 29 27 25 24
Wind_Direction
172 162 159 136 113 83 80 82 91 103 105 89 78 77 81 84 84 84 85 94 99 104 112 115 106 97 92 91 90 88 85 84 84 81 73 64 56 49 45 39 41 45 44 41 40 40 40 43 46
178 166 167 165 139 69 89 97 86 99 103 105 109 105 91 83 81 74 66 75 91 98 105 110 101 95 93 91 88 84 79 79 83 85 78 67 54 48 49 47 41 40 40 38 36 36 36 36 39
191 177 158 170 171 96 147 164 133 98 97 108 125 121 95 74 73 60 47 43 51 68 77 92 103 105 99 92 90 88 84 82 85 89 77 53 37 37 43 42 31 23 22 24 23 22 26 29 30
202 195 176 168 178 222 233 204 185 157 148 151 201 185 82 51 41 42 37 31 28 26 10 340 50 92 91 86 90 91 90 87 85 83 70 48 29 24 27 25 15 7 3 2 4 4 6 12 18
220 213 195 179 180 202 222 218 197 187 199 217 238 254 281 321 330 357 3 354 352 353 322 290 274 168 164 222 4 64 87 86 84 82 69 54 36 22 25 21 8 359 351 348 348 345 341 347 359
227 227 217 205 207 214 215 219 219 217 223 234 246 260 273 297 303 309 309 303 297 287 272 268 264 264 265 269 284 295 298 280 96 83 61 26 358 344 345 344 345 347 349 351 350 347 341 335 335
240 241 235 229 226 227 229 237 250 258 261 265 266 268 274 284 291 298 293 284 279 269 259 263 273 274 274 278 286 288 288 265 234 244 291 307 310 315 312 320 336 344 346 348 348 346 343 340 334
242 250 252 251 247 239 241 249 263 275 278 278 274 271 274 284 289 294 295 289 287 280 270 265 270 273 274 278 282 283 282 270 257 271 279 287 291 293 297 309 339 353 354 352 347 342 341 338 334
244 253 260 263 262 254 246 252 266 275 288 289 279 273 274 280 286 288 289 288 286 283 276 271 270 274 276 277 277 277 277 273 268 274 280 288 291 283 278 290 322 337 346 349 345 340 338 337 333
239 253 260 264 266 266 260 258 274 289 304 302 292 280 272 275 283 286 286 283 279 281 287 287 282 284 283 279 277 278 278 277 276 278 281 286 288 281 271 275 299 316 333 343 344 341 339 337 333
235 244 255 260 262 267 273 276 279 280 290 293 298 297 297 285 283 283 282 283 283 288 295 298 293 291 289 283 279 279 280 279 278 278 282 284 282 275 267 270 283 300 323 336 341 342 339 338 334
232 238 244 252 258 266 276 282 283 279 278 278 281 287 296 293 287 284 279 280 286 294 296 298 298 296 295 290 283 279 278 278 276 272 274 276 273 269 270 273 280 290 310 327 333 336 336 335 330
232 236 240 249 258 265 271 275 276 276 276 278 279 279 281 286 280 282 275 273 283 291 292 292 295 297 296 292 289 286 284 285 283 274 270 271 269 270 276 279 281 289 303 317 327 332 335 334 329
236 241 246 250 257 261 264 267 272 273 274 277 278 277 276 278 281 276 265 260 273 280 280 279 282 288 292 292 290 289 288 285 282 277 270 269 266 266 273 276 280 289 297 309 318 324 328 330 325
239 241 245 246 250 255 259 260 265 268 271 273 275 273 273 275 278 276 266 263 269 271 270 268 272 279 283 285 286 287 288 288 282 277 271 268 270 272 277 281 286 292 297 304 308 313 318 321 321
239 238 238 240 241 246 252 255 257 261 263 265 268 270 270 269 270 272 272 270 270 269 266 264 270 277 279 279 278 280 283 285 284 281 277 273 274 280 284 286 290 295 298 299 300 305 308 311 311
241 239 236 235 238 241 246 251 254 258 261 263 266 268 270 270 267 267 266 265 265 265 266 267 270 274 277 278 276 274 276 279 280 280 280 279 280 283 286 286 288 291 293 293 295 299 301 302 302
240 240 239 237 240 244 246 250 254 257 261 263 265 266 267 267 262 255 252 253 255 257 259 264 268 271 272 273 273 271 271 272 273 274 276 276 276 278 281 282 283 287 290 291 293 295 297 298 298
252 251 249 247 248 251 252 254 257 258 260 262 261 260 260 259 256 255 254 254 256 257 258 261 267 270 269 268 267 264 263 264 266 268 269 269 268 271 276 279 283 289 291 292 292 293 295 296 295
259 259 257 255 256 259 262 262 264 266 266 265 265 265 264 263 261 259 258 258 258 257 257 262 270 274 273 268 265 262 260 262 263 263 263 263 262 266 275 283 289 291 289 288 289 291 292 293 293
259 260 260 259 259 262 266 267 269 271 271 270 270 269 267 265 265 265 263 261 257 259 268 276 278 276 274 271 265 261 261 262 262 261 262 261 259 263 273 284 289 287 285 286 288 289 290 291 292
263 264 264 264 262 261 263 265 268 271 273 273 272 271 268 266 265 267 271 274 277 281 284 284 282 280 277 273 265 261 262 262 260 259 259 259 259 265 276 283 283 281 282 285 287 288 290 291 293
261 265 269 270 269 265 261 262 263 265 266 270 272 273 273 271 270 270 272 275 278 280 281 282 282 281 280 274 264 258 257 258 254 255 255 254 260 270 276 277 277 278 282 286 289 291 292 293 292
265 268 272 275 276 272 268 265 266 266 266 266 267 270 273 275 276 276 276 277 278 278 280 281 282 281 281 274 265 257 255 254 252 252 252 257 264 269 271 272 275 279 284 288 290 291 291 292 291
272 275 276 276 277 281 279 276 283 282 275 272 272 273 274 276 277 279 278 278 277 277 278 278 278 278 279 275 274 268 254 249 249 250 254 260 264 267 269 271 275 280 284 288 290 290 291 291 291
293 294 290 288 285 284 285 291 302 295 289 287 285 283 283 283 283 282 281 279 277 275 274 274 274 276 278 279 279 278 259 243 242 247 254 259 263 267 270 273 276 279 283 288 290 290 290 290 289
303 303 304 302 301 298 294 296 299 295 302 305 299 294 292 293 294 292 289 284 278 274 272 271 271 273 276 278 278 276 260 245 244 246 252 258 262 267 271 276 279 280 283 285 286 287 288 286 285
302 306 307 307 307 304 300 300 297 300 313 315 311 308 308 308 308 308 304 297 287 279 273 270 269 269 273 272 273 271 259 250 246 247 253 260 266 270 273 276 278 280 281 282 283 284 284 280 278
295 297 300 301 303 304 303 306 301 308 317 317 315 312 312 311 311 312 308 300 291 282 276 269 264 264 265 263 262 259 255 252 249 251 260 267 270 270 271 275 277 279 281 281 279 279 281 279 273
292 294 296 298 299 300 301 308 305 309 315 315 316 316 316 315 314 313 310 302 292 281 271 262 257 253 253 252 252 251 250 251 254 260 266 269 269 268 270 273 274 276 278 277 275 275 276 277 273
Height
5913 5914 5915 5916 5917 5917 5917 5918 5918 5920 5921 5922 5922 5923 5923 5922 5923 5926 5925 5922 5921 5920 5921 5921 5921 5921 5920 5919 5918 5918 5918 5918 5918 5918 5918 5918 5917 5916 5915 5914 5914 5913 5912 5911 5911 5910 5910 5909 5908
5913 5915 5916 5917 5918 5918 5919 5918 5919 5920 5921 5922 5924 5925 5925 5924 5924 5925 5926 5925 5923 5922 5922 5922 5921 5921 5920 5919 5919 5918 5918 5918 5918 5918 5918 5917 5917 5916 5915 5914 5913 5913 5912 5911 5910 5910 5909 5908 5908
5913 5915 5917 5918 5918 5919 5919 5919 5919 5920 5920 5921 5923 5924 5924 5925 5925 5926 5927 5927 5926 5924 5924 5924 5923 5922 5922 5921 5920 5919 5918 5918 5918 5918 5918 5917 5917 5916 5915 5914 5913 5913 5912 5911 5911 5910 5909 5908 5907
5914 5916 5918 5919 5919 5920 5920 5920 5919 5919 5920 5921 5921 5922 5923 5924 5925 5926 5926 5926 5926 5926 5925 5925 5924 5924 5923 5922 5921 5920 5919 5918 5918 5918 5917 5917 5917 5916 5915 5915 5914 5913 5911 5911 5910 5909 5908 5907 5907
5913 5916 5918 5919 5920 5921 5920 5920 5920 5920 5920 5920 5921 5921 5923 5924 5924 5925 5925 5926 5926 5926 5926 5925 5924 5923 5922 5922 5920 5919 5918 5918 5917 5917 5916 5916 5916 5915 5915 5914 5913 5912 5911 5910 5909 5908 5906 5905 5905
5913 5915 5917 5918 5919 5919 5920 5920 5921 5922 5921 5921 5922 5922 5923 5924 5924 5924 5924 5925 5926 5926 5925 5924 5923 5923 5922 5921 5920 5919 5918 5917 5917 5916 5916 5915 5915 5914 5913 5913 5912 5911 5911 5909 5908 5907 5905 5904 5903
5913 5913 5914 5916 5917 5918 5919 5919 5921 5922 5922 5922 5922 5922 5923 5924 5924 5924 5924 5925 5925 5925 5925 5924 5923 5922 5921 5920 5920 5919 5918 5917 5916 5916 5915 5915 5914 5913 5912 5912 5911 5910 5909 5908 5907 5905 5903 5902 5901
5911 5912 5911 5913 5915 5917 5918 5919 5920 5921 5921 5921 5920 5921 5922 5923 5924 5923 5923 5924 5924 5924 5924 5923 5922 5921 5920 5919 5918 5918 5917 5917 5916 5916 5915 5914 5913 5911 5911 5911 5910 5909 5908 5906 5905 5903 5901 5900 5899
5909 5910 5908 5910 5912 5914 5917 5918 5919 5920 5920 5919 5918 5919 5920 5921 5921 5921 5922 5922 5923 5922 5921 5920 5920 5919 5919 5918 5917 5916 5915 5915 5915 5914 5914 5913 5912 5910 5909 5908 5908 5907 5906 5904 5903 5902 5900 5898 5896
5907 5908 5906 5907 5908 5909 5913 5916 5917 5918 5918 5917 5917 5917 5917 5918 5918 5919 5919 5920 5920 5919 5919 5918 5918 5918 5917 5916 5916 5916 5915 5914 5914 5913 5912 5912 5911 5909 5908 5906 5906 5905 5904 5902 5901 5900 5898 5897 5894
5905 5905 5903 5902 5903 5905 5908 5913 5915 5916 5917 5917 5916 5916 5915 5916 5916 5916 5917 5917 5917 5917 5916 5915 5916 5916 5915 5915 5914 5913 5913 5913 5912 5911 5910 5909 5907 5906 5906 5904 5903 5902 5901 5900 5898 5897 5896 5895 5893
5901 5901 5900 5899 5899 5902 5905 5908 5910 5912 5914 5914 5915 5915 5915 5915 5915 5915 5914 5914 5914 5914 5913 5912 5912 5912 5912 5912 5912 5911 5910 5910 5909 5908 5907 5906 5904 5903 5903 5902 5900 5899 5898 5897 5896 5894 5893 5891 5890
5897 5896 5896 5896 5898 5901 5902 5902 5903 5907 5908 5909 5910 5912 5912 5912 5912 5911 5911 5911 5911 5910 5910 5909 5908 5908 5907 5908 5908 5908 5908 5908 5908 5906 5904 5903 5902 5900 5900 5899 5897 5895 5894 5893 5892 5891 5890 5888 5887
5892 5894 5894 5894 5894 5896 5897 5897 5897 5900 5901 5903 5904 5906 5907 5907 5907 5907 5907 5907 5906 5906 5906 5905 5904 5903 5903 5903 5903 5904 5904 5904 5904 5903 5901 5900 5898 5897 5896 5895 5894 5892 5890 5889 5887 5887 5886 5884 5883
5886 5889 5890 5890 5890 5890 5891 5892 5893 5893 5895 5896 5898 5899 5901 5902 5902 5901 5901 5902 5902 5901 5900 5900 5899 5898 5897 5897 5897 5896 5896 5896 5897 5897 5896 5895 5894 5892 5891 5890 5889 5888 5886 5885 5883 5882 5882 5880 5879
5879 5882 5883 5883 5883 5883 5885 5885 5887 5887 5889 5890 5891 5892 5893 5896 5896 5896 5895 5895 5895 5895 5894 5894 5894 5893 5892 5891 5890 5889 5889 5889 5889 5889 5889 5888 5887 5886 5885 5884 5884 5883 5881 5880 5878 5877 5876 5874 5873
5871 5873 5874 5875 5874 5875 5877 5877 5880 5881 5882 5884 5885 5885 5886 5888 5889 5889 5888 5888 5888 5887 5887 5887 5887 5886 5885 5884 5882 5881 5881 5882 5881 5881 5881 5881 5881 5880 5879 5878 5877 5876 5875 5874 5872 5870 5869 5868 5866
5863 5864 5867 5869 5868 5869 5870 5871 5873 5875 5876 5878 5879 5879 5879 5880 5880 5879 5879 5879 5880 5879 5878 5877 5876 5875 5875 5874 5873 5872 5871 5872 5873 5873 5873 5873 5873 5873 5872 5870 5869 5868 5867 5866 5864 5862 5861 5860 5858
5859 5861 5862 5863 5863 5864 5864 5866 5867 5868 5870 5871 5871 5871 5870 5870 5869 5870 5870 5871 5871 5870 5870 5869 5867 5866 5864 5863 5863 5861 5860 5860 5861 5863 5863 5862 5863 5863 5863 5862 5861 5859 5858 5857 5855 5853 5852 5851 5849
5855 5856 5857 5858 5858 5858 5858 5859 5860 5861 5862 5862 5862 5862 5863 5862 5862 5861 5861 5860 5860 5859 5858 5858 5858 5856 5854 5853 5851 5850 5849 5848 5849 5850 5850 5850 5850 5852 5852 5852 5851 5850 5850 5848 5846 5845 5844 5843 5841
5849 5850 5850 5852 5853 5852 5852 5852 5853 5853 5853 5853 5853 5854 5855 5854 5854 5852 5849 5847 5846 5846 5846 5847 5847 5846 5844 5842 5839 5837 5836 5835 5835 5835 5836 5837 5838 5840 5841 5841 5842 5842 5841 5840 5838 5837 5836 5835 5833
5843 5843 5843 5844 5846 5846 5846 5845 5846 5845 5844 5844 5845 5845 5845 5845 5845 5843 5841 5839 5838 5837 5836 5836 5836 5835 5832 5828 5825 5823 5821 5822 5822 5823 5825 5828 5829 5829 5830 5832 5834 5834 5833 5832 5830 5829 5828 5826 5824
5837 5837 5837 5837 5837 5838 5838 5838 5838 5838 5836 5835 5834 5834 5834 5834 5834 5833 5832 5830 5828 5827 5825 5824 5823 5821 5818 5814 5810 5809 5808 5808 5810 5812 5815 5817 5819 5820 5822 5824 5825 5825 5825 5823 5822 5820 5818 5816 5814
5833 5833 5832 5831 5830 5830 5830 5830 5830 5830 5829 5828 5826 5824 5822 5821 5821 5820 5819 5818 5817 5815 5813 5812 5811 5809 5806 5800 5795 5796 5797 5798 5800 5803 5806 5808 5810 5812 5814 5815 5815 5815 5815 5815 5813 5812 5809 5806 5804
5830 5830 5828 5827 5826 5826 5825 5824 5825 5824 5821 5819 5817 5815 5813 5811 5810 5808 5806 5805 5803 5802 5800 5799 5799 5798 5796 5791 5786 5784 5785 5787 5790 5794 5798 5800 5802 5804 5805 5805 5806 5806 5806 5805 5804 5802 5800 5798 5795
5827 5826 5825 5823 5822 5822 5821 5820 5820 5817 5814 5812 5809 5807 5804 5801 5799 5796 5793 5790 5789 5788 5786 5786 5786 5786 5785 5782 5779 5777 5776 5777 5780 5784 5789 5792 5794 5795 5796 5796 5796 5796 5796 5795 5794 5792 5791 5789 5788
5825 5823 5821 5819 5817 5817 5816 5816 5815 5810 5807 5804 5801 5797 5794 5790 5787 5782 5778 5774 5772 5771 5771 5771 5772 5773 5773 5772 5769 5768 5768 5769 5772 5776 5780 5783 5785 5786 5787 5787 5787 5787 5787 5786 5785 5784 5783 5781 5780
5822 5820 5818 5815 5812 5811 5811 5811 5808 5803 5800 5796 5791 5787 5783 5780 5775 5769 5763 5758 5755 5753 5753 5755 5758 5760 5761 5761 5760 5760 5761 5762 5765 5769 5772 5775 5776 5777 5777 5778 5778 5778 5779 5778 5777 5775 5774 5773 5772
5817 5816 5813 5810 5807 5804 5801 5806 5800 5796 5792 5787 5783 5778 5773 5769 5764 5757 5750 5744 5740 5738 5739 5741 5744 5747 5749 5750 5751 5752 5754 5756 5759 5762 5764 5765 5766 5766 5767 5768 5769 5770 5770 5770 5769 5768 5767 5766 5764
5811 5809 5807 5805 5802 5798 5793 5798 5791 5788 5784 5780 5775 5769 5763 5758 5753 5745 5738 5732 5728 5727 5728 5730 5732 5735 5738 5739 5741 5743 5746 5748 5751 5754 5756 5757 5757 5758 5758 5759 5760 5761 5761 5761 5761 5759 5759 5758 5757